This demonstration page uses our WeatherBlox Daily Observations layout. Learn more.

Left ArrowRight Arrow

40.92945, -100.16068

Hourly Observations for September 15, 2016

Temp ( °F °C ) Dew Point ( °F °C ) Humidity (%) Winds ( mph kmh ) Pressure ( in mb ) Visibility ( mi km ) Precip ( " mm )
12:15 am 00:15 Cloudy 59 14.8 56 13.2 90 90 SE 8 13 30.06 1018 10 16 N/A
12:35 am 00:35 Cloudy 58 14.7 56 13.2 91 91 SE 8 13 30.06 1018 10 16 N/A
12:55 am 00:55 Cloudy 58 14.6 56 13.3 92 92 SE 9 15 30.06 1018 10 16 N/A
1:15 am 01:15 Cloudy 58 14.5 56 13.3 93 93 SE 8 13 30.06 1018 7 11 N/A
1:35 am 01:35 Cloudy 58 14.7 56 13.6 93 93 SE 7 11 30.06 1018 7 11 N/A
1:55 am 01:55 Cloudy with Mist and Fog 59 15 57 14 94 94 SE 10 17 30.03 1017 2 3 N/A
2:15 am 02:15 Cloudy with Mist and Fog 59 15 58 14.2 95 95 SE 9 15 30.03 1017 1 2 N/A
2:35 am 02:35 Cloudy with Mist and Fog 60 15.6 59 14.9 96 96 SE 9 15 30.03 1017 1 2 N/A
2:55 am 02:55 Cloudy with Mist and Fog 61 16 60 15.3 96 96 SSE 14 22 30.00 1016 1 2 N/A
3:15 am 03:15 Cloudy with Mist and Fog 61 16.3 60 15.6 96 96 SSE 13 20 30.00 1016 1 2 N/A
3:35 am 03:35 Cloudy with Mist and Fog 61 16.3 60 15.6 96 96 SSE 13 20 30.00 1016 1 2 N/A
3:55 am 03:55 Cloudy with Mist and Fog 62 16.5 60 15.7 95 95 SE 13 20 30.00 1016 1 2 N/A
4:15 am 04:15 Cloudy with Mist and Fog 62 16.6 61 15.9 96 96 SE 12 19 30.00 1016 2 3 N/A
4:35 am 04:35 Cloudy with Mist and Fog 63 17 61 16.3 96 96 SE 12 19 29.97 1015 3 4 N/A
4:55 am 04:55 Cloudy with Mist and Fog 63 17.4 62 16.6 95 95 SSE 13 20 29.97 1015 3 5 N/A
5:15 am 05:15 Cloudy with Mist and Fog 64 17.9 63 17 95 95 SSE 18 30 29.97 1015 4 6 N/A
5:35 am 05:35 Cloudy with Mist and Fog 64 18 63 17.1 95 95 SSE 13 20 29.97 1015 4 6 N/A
5:55 am 05:55 Cloudy with Mist and Fog 65 18.1 63 17.2 95 95 S 10 17 29.97 1015 4 6 N/A
6:15 am 06:15 Cloudy with Mist and Fog 65 18.4 63 17.4 94 94 S 12 19 29.97 1015 5 8 N/A
6:35 am 06:35 Cloudy with Mist and Fog 65 18.5 64 17.5 94 94 SSE 10 17 29.94 1014 5 8 N/A
6:55 am 06:55 Cloudy with Mist and Fog 65 18.6 64 17.5 93 93 SSE 10 17 29.94 1014 5 8 N/A
7:15 am 07:15 Cloudy with Mist and Fog 65 18.6 64 17.5 93 93 SSE 8 13 29.94 1014 5 8 N/A
7:35 am 07:35 Cloudy with Mist and Fog 66 18.7 64 17.5 93 93 S 6 9 29.94 1014 5 8 N/A
7:55 am 07:55 Cloudy with Mist and Fog 66 18.7 64 17.5 93 93 S 7 11 29.97 1015 5 8 N/A
8:15 am 08:15 Cloudy with Mist and Fog 66 18.7 64 17.5 93 93 S 7 11 29.94 1014 4 6 N/A
8:35 am 08:35 Cloudy with Drizzle 66 18.8 64 17.6 93 93 S 7 11 29.97 1015 3 5 N/A
8:55 am 08:55 Cloudy with Light Rain 66 19 64 17.8 93 93 S 7 11 29.94 1014 4 6 N/A
9:15 am 09:15 Cloudy with Drizzle 66 19 64 17.8 93 93 S 7 11 29.94 1014 3 5 N/A
9:35 am 09:35 Cloudy with Drizzle 66 19.1 64 18 93 93 S 9 15 29.94 1014 3 5 N/A
9:55 am 09:55 Cloudy with Mist and Fog 67 19.5 65 18.2 92 92 S 8 13 29.94 1014 4 6 N/A
10:15 am 10:15 Cloudy with Mist and Fog 67 19.5 65 18.1 92 92 S 8 13 29.94 1014 5 8 N/A
10:35 am 10:35 Cloudy 68 20.2 65 18.4 89 89 S 9 15 29.91 1013 7 11 N/A
10:55 am 10:55 Cloudy 69 20.3 64 17.9 86 86 SSW 9 15 29.91 1013 10 16 N/A
11:15 am 11:15 Cloudy with Light Rain 69 20.8 64 17.8 83 83 SSW 9 15 29.91 1013 10 16 N/A
11:35 am 11:35 Cloudy with Light Rain 70 21 64 17.5 81 81 SSW 9 15 29.91 1013 10 16 N/A
11:55 am 11:55 Cloudy 71 21.6 64 17.5 78 78 SSW 9 15 29.91 1013 10 16 N/A
12:15 pm 12:15 Cloudy 71 21.8 63 17.1 75 75 SW 7 11 29.91 1013 10 16 N/A
12:35 pm 12:35 Cloudy 72 22.3 63 17.1 73 73 SSW 9 15 29.91 1013 10 16 N/A
12:55 pm 12:55 Cloudy 73 22.5 62 16.9 71 71 W 6 9 29.91 1013 10 16 N/A
1:15 pm 13:15 Mostly Cloudy 74 23.1 62 16.9 68 68 W 7 11 29.91 1013 10 16 N/A
1:35 pm 13:35 Cloudy 75 23.7 62 16.5 64 64 WSW 8 13 29.85 1011 10 16 N/A
1:55 pm 13:55 Mostly Cloudy 74 23.4 61 16.3 64 64 W 5 7 29.85 1011 10 16 N/A
2:15 pm 14:15 Mostly Cloudy 76 24.2 61 16.3 61 61 SE 3 6 29.85 1011 10 16 N/A
2:35 pm 14:35 Mostly Cloudy 77 24.9 62 16.5 60 60 W 3 6 29.85 1011 10 16 N/A
2:55 pm 14:55 Partly Cloudy 78 25.3 61 16.3 58 58 Calm 29.83 1010 10 16 N/A
3:15 pm 15:15 Partly Cloudy 79 26.1 61 16.3 55 55 SW 6 9 29.83 1010 10 16 N/A
3:35 pm 15:35 Mostly Cloudy 78 25.6 62 16.6 58 58 Calm 29.83 1010 10 16 N/A
3:55 pm 15:55 Partly Cloudy 79 26.1 62 16.4 55 55 Calm 29.83 1010 10 16 N/A
4:15 pm 16:15 Partly Cloudy 79 26 62 16.6 56 56 ENE 3 6 29.77 1008 10 16 N/A
4:35 pm 16:35 Partly Cloudy 78 25.6 61 16.2 56 56 Calm 29.80 1009 10 16 N/A
4:55 pm 16:55 Partly Cloudy 77 25 64 18 65 65 NNW 6 9 29.80 1009 10 16 N/A
5:15 pm 17:15 Partly Cloudy 79 25.9 63 17.1 58 58 NE 3 6 29.80 1009 10 16 N/A
5:35 pm 17:35 Sunny 79 26.3 62 16.7 56 56 NE 6 9 29.74 1007 10 16 N/A
5:55 pm 17:55 Sunny 80 26.5 62 16.7 55 55 NNE 5 7 29.74 1007 10 16 N/A
6:15 pm 18:15 Sunny 79 26 63 17.1 58 58 N 3 6 29.74 1007 10 16 N/A
6:35 pm 18:35 Sunny 78 25.5 63 17.2 60 60 NNW 3 6 29.80 1009 10 16 N/A
6:55 pm 18:55 Partly Cloudy 76 24.3 64 17.7 67 67 N 5 7 29.80 1009 10 16 N/A
7:15 pm 19:15 Mostly Cloudy 74 23.2 64 18 73 73 N 7 11 29.80 1009 10 16 N/A
7:35 pm 19:35 Cloudy 73 22.7 64 17.7 73 73 NNW 7 11 29.80 1009 10 16 N/A
7:55 pm 19:55 Mostly Cloudy 73 22.5 62 16.7 70 70 N 9 15 29.77 1008 10 16 N/A
8:15 pm 20:15 Partly Cloudy with Thunderstorms 72 22.2 62 16.6 71 71 N 8 13 29.83 1010 10 16 N/A
8:35 pm 20:35 Cloudy with Thunderstorms 72 22.3 62 16.4 69 69 N 9 15 29.77 1008 10 16 N/A
8:55 pm 20:55 Cloudy with Thunderstorms 71 21.7 62 16.6 73 73 NE 9 15 29.83 1010 10 16 N/A
9:15 pm 21:15 Cloudy with Nearby Thunderstorms 69 20.7 63 17 79 79 NNE 8 13 29.85 1011 10 16 0.01 0.25
9:35 pm 21:35 Cloudy with Thunderstorms 67 19.5 63 17.4 88 88 S 14 22 29.94 1014 5 8 0.14 3.56
9:55 pm 21:55 Cloudy with Thunderstorms 63 17.1 60 15.7 92 92 SE 15 24 29.97 1015 4 6 0.34 8.64
10:15 pm 22:15 Cloudy with Light Rain 61 16 57 13.7 86 86 ESE 16 26 29.94 1014 10 16 0.04 1.02
10:35 pm 22:35 Partly Cloudy 60 15.8 57 14 89 89 ENE 5 7 29.97 1015 10 16 0.04 1.02
10:55 pm 22:55 Partly Cloudy with Nearby Thunderstorms 60 15.8 58 14.3 91 91 NNW 8 13 29.97 1015 10 16 0.04 1.02
11:15 pm 23:15 Clear 60 15.8 58 14.4 91 91 NNW 3 6 29.97 1015 10 16 N/A
11:35 pm 23:35 Clear 60 15.8 58 14.5 92 92 N 5 7 29.97 1015 10 16 N/A
11:55 pm 23:55 Clear 60 15.6 58 14.2 91 91 N 3 6 29.94 1014 10 16 N/A

Powered by AerisWeather